Home   Weather   Ansfelden   Past weeks

Flag for Austria Past Weather in Ansfelden, Upper Austria, Austria — Yesterday and Last 2 Weeks

Now
59 °F

Overcast.


Feels Like: N/A
Forecast: 54 / 68 °F
Wind: N/A

Location: Linz / Hoersching-Flughafen

Current Time: Aug 20, 2017 at 12:50:27 am

Latest Report: Aug 20, 2017 at 12:00 am


Visibility: 7 mi

Pressure: 30.15 "Hg

Humidity: 96%

Dew Point: 58 °F

Location of AnsfeldenLocation

Past Weather in Ansfelden — Graph

°F

Ansfelden Temperature Yesterday

Maximum temperature yesterday: 66 °F (at 2:00 am)
Minimum temperature yesterday: 60 °F (at 11:00 pm)
Average temperature yesterday: 63 °F

High & Low Weather Summary for the Past Weeks

 TemperatureHumidityPressure
High88 °F (Aug 18, 5:00 pm)97% (Aug 14, 2:00 am)30.24 "Hg (Aug 14, 2:00 am)
Low53 °F (Aug 14, 6:00 am)30% (Aug 14, 6:00 pm)29.79 "Hg (Aug 18, 9:00 pm)
Average67 °F75%30.05 "Hg
* Reported Aug 4 11:00 pm — Aug 19 11:00 pm, Ansfelden. Weather by CustomWeather, © 2017

Note: Actual official high and low records may vary slightly from our data, if they occured in-between our weather recording intervals... More about our weather records

Advertising

Ansfelden Weather History for the Previous 24 Hours

Scroll right to see more
 ConditionsComfort  
Time TempWeatherWind HumidityBarometerVisibility
11:00 pm
Sat, Aug 19
60 °FOvercast.N/A94%30.15 "Hg25 mi
10:00 pm60 °FOvercast.N/A92%30.16 "Hg28 mi
9:00 pm60 °FOvercast.N/A92%30.16 "Hg31 mi
8:00 pm61 °FLow clouds.N/A94%30.14 "Hg19 mi
7:00 pm62 °FLight rain. Overcast.N/A94%30.13 "Hg12 mi
6:00 pm63 °FRain showers. Low clouds.N/A93%30.13 "Hg10 mi
5:00 pm64 °FLight rain. Low clouds.N/A90%30.12 "Hg25 mi
4:00 pm63 °FRain showers. Low clouds.N/A90%30.13 "Hg19 mi
3:00 pm63 °FLight rain. Low clouds.N/A87%30.12 "Hg19 mi
2:00 pm62 °FDrizzle. Low clouds.3 mph90%30.13 "Hg11 mi
1:00 pm64 °FOvercast.N/A83%30.11 "Hg28 mi
12:00 pm63 °FLight rain. Low clouds.N/A89%30.11 "Hg28 mi
11:00 am62 °FHeavy rain. Low clouds.N/A93%30.11 "Hg8 mi
10:00 am62 °FHeavy rain. Low clouds.N/A93%30.12 "Hg6 mi
9:00 am62 °FLight rain. Low clouds.N/A95%30.10 "Hg19 mi
8:00 am62 °FHeavy rain. Overcast.N/A93%30.08 "Hg6 mi
7:00 am62 °FLight rain. Overcast.N/A93%30.07 "Hg28 mi
6:00 am62 °FHeavy rain. Overcast.5 mph92%30.06 "Hg9 mi
5:00 am63 °FLight rain. Overcast.6 mph89%30.05 "Hg11 mi
4:00 am64 °FRain showers. Overcast.6 mph83%30.04 "Hg25 mi
3:00 am66 °FOvercast.6 mph77%30.05 "Hg31 mi
2:00 am66 °FOvercast.5 mph78%30.05 "Hg31 mi
1:00 am65 °FOvercast.8 mph81%30.07 "Hg31 mi
12:00 am65 °FOvercast.14 mph78%30.02 "Hg28 mi
Weather by CustomWeather, © 2017

See weather overviewHow to use our weather pages